Midland Airpark, TX
on Tuesday, March 13, 2018

Tuesday
Previous Day Next Day
Daily Summary
 ActualAverage (KMAF)Record (KMAF)
Temperature
Mean Temperature - -  
Max Temperature 68 °F 66 °F 89 °F (1989)
Min Temperature 36 °F 40 °F 14 °F (1993)
Degree Days
Heating Degree Days 13    
Growing Degree Days2 (Base - )  
Moisture
Dew Point 22 °F   
Average Humidity 31    
Maximum Humidity 52    
Minimum Humidity 18    
Precipitation
Precipitation 0.00 in - - ()
Wind
Wind Speed 6 mph   
Max Wind Speed 13 mph   
Max Gust Speed 20 mph   
Visibility 10 miles   
Events     
Averages and records for this station are not official NWS values.
Key: T is trace of precipitation, MM is missing value
Source: NWS Daily Summary
Seasonal Weather Averages





Time(CDT)TemperatureDew PointHumidity Pressure Visibility Wind DirectionWind SpeedGust SpeedPrecipitationEvents Conditions
12:15 AM 49.3 °F 17.6 °F 28% 30.24 in 10.0 miles SE 6.9 mph - N/A   Unknown
12:35 AM 48.9 °F 17.6 °F 29% 30.24 in 10.0 miles SE 5.8 mph - N/A   Unknown
12:55 AM 48.2 °F 17.6 °F 30% 30.25 in 10.0 miles ESE 4.6 mph - N/A   Unknown
1:15 AM 47.3 °F 17.6 °F 31% 30.24 in 10.0 miles ESE 3.5 mph - N/A   Unknown
1:35 AM 46.4 °F 17.6 °F 32% 30.24 in 10.0 miles SE 4.6 mph - N/A   Unknown
1:55 AM 45.9 °F 18.0 °F 33% 30.23 in 10.0 miles SE 3.5 mph - N/A   Unknown
2:15 AM 45.5 °F 18.5 °F 34% 30.23 in 10.0 miles SE 3.5 mph - N/A   Unknown
2:35 AM 45.5 °F 18.9 °F 35% 30.22 in 10.0 miles ESE 4.6 mph - N/A   Unknown
2:55 AM 45.0 °F 19.0 °F 36% 30.22 in 10.0 miles SE 4.6 mph - N/A   Unknown
3:15 AM 44.4 °F 19.4 °F 37% 30.21 in 10.0 miles SE 4.6 mph - N/A   Unknown
3:35 AM 44.1 °F 20.1 °F 39% 30.21 in 10.0 miles SE 3.5 mph - N/A   Unknown
3:55 AM 43.7 °F 19.2 °F 38% 30.21 in 10.0 miles Calm Calm - N/A   Unknown
4:15 AM 43.5 °F 19.6 °F 38% 30.20 in 10.0 miles ESE 3.5 mph - N/A   Unknown
4:35 AM 43.2 °F 20.1 °F 40% 30.21 in 10.0 miles East 3.5 mph - N/A   Unknown
4:55 AM 41.2 °F 18.7 °F 40% 30.21 in 10.0 miles ENE 3.5 mph - N/A   Unknown
5:15 AM 39.4 °F 18.3 °F 43% 30.21 in 10.0 miles Calm Calm - N/A   Unknown
5:35 AM 38.8 °F 18.5 °F 44% 30.22 in 10.0 miles Calm Calm - N/A   Unknown
5:55 AM 38.3 °F 18.5 °F 45% 30.22 in 10.0 miles Calm Calm - N/A   Unknown
6:15 AM 38.7 °F 19.4 °F 46% 30.22 in 10.0 miles ESE 3.5 mph - N/A   Unknown
6:35 AM 41.0 °F 21.9 °F 47% 30.22 in 10.0 miles ESE 3.5 mph - N/A   Unknown
6:55 AM 40.1 °F 19.9 °F 44% 30.23 in 10.0 miles ENE 4.6 mph - N/A   Unknown
7:15 AM 38.5 °F 19.8 °F 47% 30.24 in 10.0 miles NE 3.5 mph - N/A   Unknown
7:35 AM 37.4 °F 19.4 °F 48% 30.24 in 10.0 miles Calm Calm - N/A   Unknown
7:55 AM 36.9 °F 19.9 °F 50% 30.25 in 10.0 miles Calm Calm - N/A   Unknown
8:15 AM 38.1 °F 21.9 °F 52% 30.26 in 10.0 miles ENE 4.6 mph - N/A   Unknown
8:35 AM 41.0 °F 23.5 °F 50% 30.26 in 10.0 miles East 5.8 mph - N/A   Unknown
8:55 AM 43.2 °F 24.6 °F 48% 30.27 in 10.0 miles East 5.8 mph - N/A   Unknown
9:15 AM 44.6 °F 24.4 °F 45% 30.28 in 10.0 miles East 4.6 mph - N/A   Unknown
9:35 AM 46.4 °F 25.9 °F 45% 30.28 in 10.0 miles East 5.8 mph - N/A   Unknown
9:55 AM 50.5 °F 26.4 °F 39% 30.29 in 10.0 miles ESE 5.8 mph - N/A   Unknown
10:15 AM 53.2 °F 25.3 °F 34% 30.31 in 10.0 miles SE 8.1 mph - N/A   Unknown
10:35 AM 54.5 °F 25.3 °F 32% 30.31 in 10.0 miles ESE 6.9 mph - N/A   Unknown
10:55 AM 55.6 °F 25.2 °F 31% 30.31 in 10.0 miles SE 8.1 mph - N/A   Unknown
11:15 AM 57.7 °F 25.7 °F 29% 30.31 in 10.0 miles SE 5.8 mph - N/A   Unknown
11:35 AM 58.8 °F 25.3 °F 28% 30.30 in 10.0 miles SSE 8.1 mph - N/A   Unknown
11:55 AM 60.1 °F 25.5 °F 27% 30.30 in 10.0 miles ESE 5.8 mph - N/A   Unknown
12:15 PM 61.3 °F 25.2 °F 25% 30.29 in 10.0 miles ESE 9.2 mph - N/A   Unknown
12:35 PM 62.6 °F 25.7 °F 25% 30.28 in 10.0 miles ESE 10.4 mph - N/A   Unknown
12:55 PM 64.2 °F 25.7 °F 23% 30.28 in 10.0 miles East 8.1 mph - N/A   Unknown
1:15 PM 65.5 °F 24.3 °F 21% 30.28 in 10.0 miles East 10.4 mph - N/A   Unknown
1:35 PM 66.0 °F 23.9 °F 20% 30.28 in 10.0 miles ESE 8.1 mph 18.4 mph N/A   Unknown
1:55 PM 66.4 °F 23.2 °F 19% 30.26 in 10.0 miles East 10.4 mph 18.4 mph N/A   Unknown
2:15 PM 67.6 °F 23.9 °F 19% 30.26 in 10.0 miles East 10.4 mph - N/A   Unknown
2:35 PM 68.7 °F 23.2 °F 18% 30.25 in 10.0 miles ESE 11.5 mph - N/A   Unknown
2:55 PM 68.4 °F 22.8 °F 18% 30.24 in 10.0 miles SE 8.1 mph 16.1 mph N/A   Unknown
3:15 PM 68.2 °F 23.0 °F 18% 30.24 in 10.0 miles ESE 9.2 mph - N/A   Unknown
3:35 PM 66.9 °F 22.6 °F 19% 30.23 in 10.0 miles SE 8.1 mph - N/A   Unknown
3:55 PM 66.7 °F 22.3 °F 18% 30.23 in 10.0 miles East 10.4 mph - N/A   Unknown
4:15 PM 66.2 °F 22.1 °F 19% 30.22 in 10.0 miles East 8.1 mph 18.4 mph N/A   Unknown
4:35 PM 65.3 °F 23.5 °F 20% 30.21 in 10.0 miles ESE 11.5 mph - N/A   Unknown
4:55 PM 65.3 °F 23.9 °F 21% 30.21 in 10.0 miles ESE 9.2 mph - N/A   Unknown
5:15 PM 67.1 °F 23.4 °F 19% 30.20 in 10.0 miles SE 12.7 mph 17.3 mph N/A   Unknown
5:35 PM 67.8 °F 23.5 °F 19% 30.20 in 10.0 miles ESE 11.5 mph 19.6 mph N/A   Unknown
5:55 PM 67.8 °F 23.5 °F 19% 30.21 in 10.0 miles ESE 11.5 mph 18.4 mph N/A   Unknown
6:15 PM 67.1 °F 23.7 °F 19% 30.20 in 10.0 miles SE 12.7 mph 18.4 mph N/A   Unknown
6:35 PM 66.2 °F 22.6 °F 19% 30.21 in 10.0 miles ESE 11.5 mph - N/A   Unknown
6:55 PM 65.3 °F 23.0 °F 20% 30.21 in 10.0 miles ESE 10.4 mph - N/A   Unknown
7:15 PM 63.9 °F 23.0 °F 21% 30.21 in 10.0 miles SE 11.5 mph - N/A   Unknown
7:35 PM 63.3 °F 23.0 °F 21% 30.22 in 10.0 miles ESE 10.4 mph - N/A   Unknown
7:55 PM 62.6 °F 23.0 °F 22% 30.24 in 10.0 miles SE 11.5 mph - N/A   Unknown
8:10 PM 62.1 °F 23.0 °F 22% 30.23 in 10.0 miles SE 9.2 mph - N/A   Unknown
8:35 PM 60.8 °F 23.4 °F 24% 30.24 in 10.0 miles ESE 9.2 mph - N/A   Unknown
8:55 PM 59.9 °F 23.4 °F 25% 30.25 in 10.0 miles SE 6.9 mph - N/A   Unknown
9:15 PM 59.0 °F 23.5 °F 26% 30.25 in 10.0 miles ESE 8.1 mph - N/A   Unknown
9:35 PM 58.6 °F 23.7 °F 26% 30.25 in 10.0 miles East 11.5 mph - N/A   Unknown
9:55 PM 58.3 °F 23.7 °F 26% 30.26 in 10.0 miles ESE 9.2 mph - N/A   Unknown
10:15 PM 58.1 °F 23.5 °F 26% 30.27 in 10.0 miles ESE 11.5 mph - N/A   Unknown
10:35 PM 57.2 °F 23.4 °F 27% 30.28 in 10.0 miles ESE 9.2 mph - N/A   Unknown
10:55 PM 56.1 °F 23.9 °F 29% 30.27 in 10.0 miles East 10.4 mph - N/A   Unknown
11:15 PM 54.7 °F 23.7 °F 30% 30.28 in 10.0 miles East 6.9 mph - N/A   Unknown
11:35 PM 53.8 °F 23.7 °F 31% 30.29 in 10.0 miles East 6.9 mph - N/A   Unknown
11:55 PM 53.1 °F 23.5 °F 32% 30.29 in 10.0 miles East 5.8 mph - N/A   Unknown
 Powered By Weather Underground